Location: Buffign�court
(47.8126°N, 6.0176°E)
Time: 13:20:10
(UTC+00:00)

SL-24 R/B - Pass Details

Date: 16 June 2021
Orbit: 716 x 1117 km, 91.9° (Epoch: 01 August)

Event Time Altitude Azimuth Distance (km) Brightness Sun altitude
Rises 21:43:16 0° 5° (N) 3,199 8.8 -14.4°
Reaches altitude 10° 21:45:36 10° 7° (N) 2,243 7.8 -14.6°
Maximum altitude 21:50:30 79° 94° (E) 736 4.3 -14.9°
Enters shadow 21:53:40 22° 179° (S) 1,552 5.6 -15.1°
